STARLINK-31871, 59673

Orbit data source: Space-Track

STARLINK-31871, 59673 is a payload satellite owned by SpaceX/Seattle (US) in LEO that was launched on Mon, 06 May 2024 UTC via an FALCON 9 launch vehicle from the Air Force Eastern Test Range (AFETR). Payload-class satellites include a variety of spacecraft equipped with specific instruments for various scientific and technological missions. These include communications satellites like Starlink; space stations such as the ISS; scientific satellites like the Hubble; Earth observation satellites from companies like Planet Labs, Umbra, and HawkEye 360; GPS; miniature CubeSats for education and research; and military/defense satellites.

Loading next visibility...
Identifier
59673, 2024-084V
Orbit
LEO
Country
Flag of USUS
Related business
Manufacturer
SpaceX/Seattle
Mission
Operational Commercial Communications
Bus & Motor
STARLINK V2M, Unknown motor
Mass
730 kg wet, ~700 kg dry
Launch date (UTC)
2024-05-06 (2 years ago)
Launch vehicle
FALCON 9
Launch site
Air Force Eastern Test Range (AFETR)
Object type
Payload
Rocket body
Debris
Shape & HBR
Box + 2 Pan, 17.7 m
Radar Cross Section
33.884 m², Large (>1 m²)

Expand to show TLE details & history
Last TLE update: 6 hours ago

TLE from 6 hours ago
0 STARLINK-31871
1 59673U 24084V   26073.52506482  .00001000  00000-0  45876-4 0  9993
2 59673  43.0020  14.3951 0000981 275.9585  84.1155 15.27574643105119
Epoch: 2026-03-14T12:36Z
TLE epoch observation values (Epoch: 2026-03-14T12:36:05.600Z)
Latitude
-0.00001°
Longitude
13.22676°
Altitude
482.772 km
Speed
7.626 km/s
True Right ascension
00h 57m 34s
True Declination
0° 00' 00"
Sunlit
Object was in daylight at epoch
Visualization orbit readout
Latitude
Unknown
Longitude
Unknown
Altitude
Unknown
Speed
Unknown
Apparent Right ascension
Unknown
Apparent Declination
Unknown
Sunlit
N/A
Visualization observer readout
Local Sidereal Time
22:38:39
Azimuth
Unknown
Elevation
Unknown
Doppler factor
Unknown
Orbital elements
Apogee altitude
485.683 km
Perigee altitude
484.337 km
Semi-major axis
6,863.147 km
Eccentricity
0.0001
Inclination
43.002°
RAAN
14.3951°
Arg. of periapsis
275.9585°
True anomaly
84.12668°
Mean anomaly
84.1155°
Eccentric anomaly
84.12109°
Mean motion
3.81732 °/min
Orbital period
94.31 mins
BSTAR
0.000045876
Loading maneuver chart data...
Computing Atmospheric mass density...
Loading historical data...
Loading historical data...
Loading historical data...
Loading historical data...
Loading historical data...
Loading historical data...
Loading historical data...

Documentation

Showing up to 5 results
|